Change the Weather History Date:

Sunday, August 11, 2013

  Actual Average Record
Temperature  
Mean Temperature 60 °F -  
Max Temperature 77 °F 65 °F 80 °F (1996)
Min Temperature 42 °F 39 °F 33 °F (2007)
Degree Days  
Heating Degree Days 6    
Growing Degree Days 10 (Base 50)    
Moisture  
Dew Point 54 °F    
Average Humidity 76    
Maximum Humidity 100    
Minimum Humidity 48    
Precipitation  
Precipitation 0.00 in - - ()
Sea Level Pressure  
Sea Level Pressure 30.08 in    
Wind  
Wind Speed 5 mph ()    
Max Wind Speed 14 mph    
Max Gust Speed 20 mph    
Visibility 12.3 miles    
Events Fog    
Averages and records for this station are not official NWS values.
T = Trace of Precipitation, MM = Missing Value Source: Averaged Metar Reports

Daily Weather History Graph

Daily Weather History Graph

Search for Another Location

Airport or City:

Trip Planner

Search our weather history database for the weather conditions in past years. The results will help you decide how hot, cold, wet, or windy it might be!

Date:

Astronomy

Aug. 11, 2013 Rise Set
Actual Time 6:18 AM MDT 9:05 PM MDT
Civil Twilight 5:40 AM MDT 9:43 PM MDT
Nautical Twilight 4:51 AM MDT 10:31 PM MDT
Astronomical Twilight 3:51 AM MDT 11:30 PM MDT
Moon 11:51 AM MDT (8/11) 10:40 PM MDT (8/11)
Length of Visible Light 16h 02m
Length of Day
14h 47m
Waxing Crescent, 22% of the Moon is Illuminated
Aug 11
Waxing Crescent
Aug 14
First Quarter
Aug 20
Full
Aug 28
Last Quarter
Sep 5
New

Hourly Weather History & Observations

Time (MDT) Temp. Windchill Dew Point Humidity Pressure Visibility Wind Dir Wind Speed Gust Speed Precip Events Conditions
5:00 AM 44.6 °F - 44.6 °F 100% 30.12 in 1.0 mi WNW 2.3 mph - N/A Fog Partly Cloudy
5:14 AM 44.6 °F 42.2 °F 44.6 °F 100% 30.12 in 2.0 mi WNW 4.6 mph - N/A Fog Patches of Fog
6:00 AM 43 °F - 43 °F 100% 30.11 in 1 mi NW 4.6 mph - -   Mist
6:00 AM 42.8 °F 39.3 °F 42.8 °F 100% 30.11 in 0.8 mi NW 5.8 mph - N/A   Partly Cloudy
6:03 AM 42.8 °F 39.3 °F 42.8 °F 100% 30.11 in 0.5 mi NW 5.8 mph - N/A Fog Fog
7:00 AM 46.4 °F 45.2 °F 46.4 °F 100% 30.11 in 20.0 mi NNW 3.5 mph - N/A   Scattered Clouds
8:00 AM 50.0 °F - 50.0 °F 100% 30.09 in 30.0 mi NW 6.9 mph - N/A   Scattered Clouds
9:00 AM 53.6 °F - 53.6 °F 100% 30.10 in 30.0 mi West 2.3 mph - N/A   Mostly Cloudy
10:00 AM 60.8 °F - 55.4 °F 82% 30.09 in 30.0 mi Variable 2.3 mph - N/A   Mostly Cloudy
11:00 AM 66.2 °F - 55.4 °F 68% 30.08 in 30.0 mi Calm Calm - N/A   Mostly Cloudy
12:00 PM 70 °F - 54 °F 48% 30.09 in 28 mi SSE 4.6 mph - -   Clear
12:00 PM 69.8 °F - 53.6 °F 56% 30.09 in 30.0 mi SE 4.6 mph - N/A   Mostly Cloudy
1:00 PM 75.2 °F - 57.2 °F 53% 30.07 in 25.0 mi South 9.2 mph - N/A   Mostly Cloudy
2:00 PM 77.0 °F - 59.0 °F 54% 30.06 in 25.0 mi South 12.7 mph - N/A   Mostly Cloudy
3:00 PM 77.0 °F - 59.0 °F 54% 30.06 in 25.0 mi SSE 11.5 mph 18.4 mph N/A   Scattered Clouds
4:00 PM 77.0 °F - 59.0 °F 54% 30.05 in 25.0 mi SSE 12.7 mph 19.6 mph N/A   Scattered Clouds
5:00 PM 77.0 °F - 59.0 °F 54% 30.05 in 20.0 mi SSE 13.8 mph - N/A   Scattered Clouds
6:00 PM 75 °F - 60 °F 50% 30.06 in 19 mi South 11.5 mph - -  
6:00 PM 75.2 °F - 60.8 °F 61% 30.05 in 20.0 mi South 12.7 mph - N/A   Scattered Clouds
7:00 PM 73.4 °F - 59.0 °F 61% 30.05 in 20.0 mi SSE 12.7 mph - N/A   Mostly Cloudy
8:00 PM 68.0 °F - 59.0 °F 73% 30.04 in 20.0 mi SSE 8.1 mph - N/A   Mostly Cloudy
9:00 PM 64.4 °F - 59.0 °F 83% 30.04 in 20.0 mi East 4.6 mph - N/A   Mostly Cloudy
10:00 PM 62.6 °F - 59.0 °F 88% 30.07 in 15.0 mi East 5.8 mph - N/A   Mostly Cloudy